Regional Weather Roundup
Issued by NWS Pendleton, OR

Home | Current Version | Previous Version | Text Only | Print | Product List | Glossary On
Versions: 1 2 3 4 5 6 7 8 9 10 11 12 13 14 15 16 17 18 19 20 21 22 23 24 25 26 27 28 29 30 31 32 33 34 35 36 37 38 39 40 41 42 43 44 45 46 47 48 49 50
000
ASUS46 KPDT 012225
RWRPDT
PENDLETON REGIONAL WEATHER ROUNDUP
NATIONAL WEATHER SERVICE PENDLETON OREGON
300 PM PDT SAT OCT 1 2016

NOTE: FAIR INDICATES FEW OR NO CLOUDS BELOW 12,000 FEET WITH NO
SIGNIFICANT WEATHER AND/OR OBSTRUCTIONS TO VISIBILITY.

# INDICATES UNOFFICIAL STATION AND DATA

WAZ520-012310-
EAST SLOPES OF WASHINGTON CASCADES

CITY            SKY/WX      TMP DP  RH  WIND    PRES   REMARKS
#CLE ELUM HS    N/A         59  38  45  CALM    29.88F
#CLE ELUM LAKE  N/A         55  37  51  CALM    29.89R
#GLENWOOD       N/A         57  44  62  CALM    29.97S
#MANASTASH CYN  N/A         61  31  32  W1      29.93R
#NELSON 3SW     N/A         53  38  57  CALM    30.12S
#NILE           N/A         61  33  35  N2      29.18R
#RONALD 2NW     N/A         57  N/A N/A CALM    29.99R
#TEANAWAY 4NE   N/A         60  39  46  W2      N/A
#TROUT LAKE 1NE N/A         54  44  69  SW8     29.99R
$$

WAZ521-012310-
SIMCOE HIGHLANDS

CITY            SKY/WX      TMP DP  RH  WIND    PRES   REMARKS
#CENTERVILLE 1SWN/A         59  39  47  W10     29.93F
#GOLDENDALE 1NE N/A         62  26  25  S2      N/A
#GOLDENDALE 4W  N/A         63  45  52  SW10    30.02R
#GOODNOE HILLS  N/A         64  38  38  W16     N/A
#LYLE 6NE       N/A         62  42  48  SW8     29.94S
$$

WAZ026-012310-
KITTITAS VALLEY

CITY            SKY/WX      TMP DP  RH  WIND    PRES   REMARKS
ELLENSBURG AP   MOCLDY      64  35  34  CALM    29.92S
#ELLENSBURG CWU N/A         63  36  36  CALM    29.84S
#ELLENSBURG 3NE N/A         61  40  46  CALM    29.92S
#KITTITAS 4N    N/A         62  39  43  E2      29.92S
#KITTITAS 3S    N/A         64  40  41  S8      29.88S
#THORP 6N       N/A         57  36  45  SE5     29.92S
$$

WAZ027-012310-
YAKIMA VALLEY

CITY            SKY/WX      TMP DP  RH  WIND    PRES   REMARKS
SUNNYSIDE AP    CLOUDY      63  38  39  SW9     29.96S
YAKIMA AIRPORT  PTCLDY      68  34  28  S23G32  29.94R
YAKIMA-VAGABOND MOSUNNY     65  33  30  SW20G29 29.92S
#DONALD 2NE     N/A         67   9  10  S12     28.81
#GRANDVIEW      N/A         67  32  27  W3      29.95F
#MABTON         N/A         67  39  36  SW10    29.95F
#NACHES 2SW     N/A         63  39  41  CALM    29.94S
#TERRACE HTS    N/A         65  38  37  S7      29.90R
#TOPPENISH      N/A         65  39  38  W8      29.85F
#WEST VALLEY    N/A         63  38  39  S10     29.91R
#WHITE SWAN 5E  N/A         67  40  37  SW14    29.93F
#WILEY CITY 3W  N/A         65  30  27  S5      29.91R
$$

WAZ028-012310-
LOWER COLUMBIA BASIN...WASHINGTON

CITY            SKY/WX      TMP DP  RH  WIND    PRES   REMARKS
HANFORD         MOSUNNY     70  33  25  SW16G28 29.95S
PASCO           PTCLDY      71  35  27  SW14    29.97F
PROSSER AWOS    N/A         70  37  30  SW15    29.99S
RICHLAND AWOS   PTCLDY      73  35  25  SW10    29.96F
#BENTON CITY    N/A         67  36  32  W12     29.85F
#CONNELL 5N     N/A         67  38  34  SW5     29.96S
#CONNELL 5NW    N/A         65  43  45  S8      29.92S
#ELTOPIA 6NW    N/A         66  41  40  S10     28.94F
#KAHLOTUS       N/A         63  36  36  W22G31  29.96S
#KENNEWICK 3S   N/A         69  40  35  N2      29.96F
#PATERSON       N/A         69  39  33  S6      29.92F
#SAGEMOOR 2W    N/A         68  36  31  SW14    29.80F
#TOUCHET 2S     N/A         70  40  34  CALM    29.94F
#WEST PASCO     N/A         70  43  38  SW6     29.95F
$$

WAZ029-012310-
FOOTHILLS OF THE BLUES...WASHINGTON

CITY            SKY/WX      TMP DP  RH  WIND    PRES   REMARKS
WALLA WALLA AP  PTCLDY      68  33  27  W7      29.98F
#CLYDE 6NW      N/A         64  36  35  W13     29.95F
#LOWDEN 2SE     N/A         70  43  38  N1      29.94S
#PLEASANT VIEW 1N/A         64  34  33  SW7     29.99F
#PRESCOTT       N/A         69  38  32  W1      29.95F
#WHITMAN COLLEGEN/A         66  38  36  CALM    30.00F
#WAITSBURG 5S   N/A         69  35  28  SW3     30.05S
#WHITMAN MISSIONN/A         68  40  36  CALM    29.97S
$$

WAZ030-012310-
BLUE MOUNTAINS...WASHINGTON

CITY            SKY/WX      TMP DP  RH  WIND    PRES   REMARKS
#DIXIE 5SE      N/A         59  35  40  SW7     29.94S
$$

ORZ009-041-WAZ024-012310-
COLUMBIA RIVER GORGE

CITY            SKY/WX      TMP DP  RH  WIND    PRES   REMARKS
HOOD RIVER AP   PTCLDY      64  43  46  NW6     29.99S
THE DALLES AP   CLOUDY      69  39  33  N9      29.97S
#ARLINGTON AIRPON/A         68  37  32  W12     29.95F
#CELILO DOT     N/A         67  44  43  W2      N/A
#MOSIER 1S      N/A         66  29  25  W8      29.97S
#MURDOCK        N/A         67  43  42  W12     29.93F
#RUFUS DOT      N/A         68  39  35  W8      N/A
#SMITHVILLE     N/A         68  42  39  N10     29.93R

$$

ORZ510-012310-
NORTH CENTRAL OREGON

CITY            SKY/WX      TMP DP  RH  WIND    PRES   REMARKS
#ANTELOPE       N/A         58  36  44  W10     29.85F
#CHENOWITH 1W   N/A         60  39  46  NW18    N/A
#COW CYN RST AREN/A         56  N/A N/A SW13    N/A
#DUFUR 9E       N/A         58  36  44  W23G32  30.02R
#GRASS VALLEY 1SN/A         61  37  41  W13     29.95R
#KENT DOT       N/A         60  32  35  N25     N/A
#MAUPIN SCHOOL  N/A         64  40  41  W1      30.02F
#SHANIKO 5WSW   N/A         55  31  40  N23     N/A
#SHANIKO 4NW    N/A         56  32  40  SW9     30.01S
#TYGH VALLEY 2NEN/A         64  38  38  N10     29.96F
#WAPANITIA AIRPON/A         62  36  38  W9      29.98F
#WASCO DOT      N/A         63  39  41  SW3     N/A
#WASCO AIRPORT  N/A         61  36  39  W7      N/A
#WASCO 5NE      N/A         62  40  44  W6      29.96R
$$

ORZ511-012310-
CENTRAL OREGON

CITY            SKY/WX      TMP DP  RH  WIND    PRES   REMARKS
BEND AIRPORT    SUNNY       59  28  30  SW17G26 30.02F
MADRAS AIRPORT  PTCLDY      59  32  36  W12     30.03F
PRINEVILLE AP   PTCLDY      61  28  28  SW14G24 30.02S
REDMOND AIRPORT PTCLDY      60  27  28  SW10    30.01F
#ASHWOOD SCHOOL N/A         59  35  40  W7      29.98S
#BEND 1SW       N/A         55  33  43  NW2     N/A
#BEND-AWBREY    N/A         57  36  45  SW3     29.99S
#BEND-KIM LN    N/A         59  34  39  SW7     29.93F
#CULVER         N/A         57  35  43  SW5     29.91F
#CULVER 8W      N/A         60  33  36  SW3     30.01F
#LAKE BILLY CHINN/A         62  N/A N/A W8      30.06F
#MADRAS 4S      N/A         59  13  16  CALM    30.08F
#POWELL BUTTE 3EN/A         58  31  36  CALM    N/A
#PRINEVILLE 3N  N/A         60  36  41  W9      29.98S

$$


ORZ509-012310-
EAST SLOPES OF OREGON CASCADES

CITY            SKY/WX      TMP DP  RH  WIND    PRES   REMARKS
#BLUE BOX PASS  N/A         45  N/A N/A CALM    N/A
#CAMP SHERMAN   N/A         52  40  63  N1      30.11S
#LA PINE DOT    N/A         56  26  31  SW10    N/A
#LA PINE 4NW    N/A         52  33  48  W7      30.06S
#LAVA BUTTE DOT N/A         53  31  43  SW5     N/A
#SISTERS AIRPOR N/A         56  42  59  N1      30.17S
#SISTERS ODOT   N/A         56  N/A N/A SW2     N/A
#SISTERS 3N     N/A         57  35  43  W3      30.03S
#SUNRIVER       N/A         53  34  48  W5      30.02S
#TUMALO 3W      N/A         55  34  45  W9      29.87S
#WANOGA BUTTE D N/A         42  29  60  SW9     N/A

$$

ORZ044-012310-
LOWER COLUMBIA BASIN...OREGON

CITY            SKY/WX      TMP DP  RH  WIND    PRES   REMARKS
HERMISTON       PTCLDY      68  37  32  VRB3    29.96F
#BOARDMAN SCHOOLN/A         70  38  31  SW7     29.94F
#BOARDMAN 8SW   N/A         71  38  30  SW16    29.93S
#ECHO 8SW       N/A         66  39  37  CALM    29.97F
#I-84 EX 198 DOTN/A         66  43  43  E8      N/A
#UMATILLA       N/A         71  39  31  CALM    29.88F
$$

ORZ507-012310-
NORTHERN FOOTHILLS OF THE BLUES

CITY            SKY/WX      TMP DP  RH  WIND    PRES   REMARKS
PENDLETON AIRPT MOCLDY      65  33  30  NW8     29.98S
#ADAMS 3WNW     N/A         65  37  35  W2      29.96R
#ATHENA         N/A         65  37  35  CALM    29.98S
#CAYUSE         N/A         64  36  35  NW5     29.95S
#HELIX SCHOOL   N/A         65  37  35  N1      29.96S
#HELIX 3N       N/A         64  34  33  W7      29.96S
#HELIX 6SW      N/A         65  37  35  CALM    29.98S
#HOLDMAN 5SE    N/A         64  37  37  CALM    29.97F
#HOLDMAN 6E     N/A         65  36  34  NE5     29.77S
#M-F GROVE ELEM N/A         68  33  27  CALM    29.96S
#M-FREEWATER 5SEN/A         67  41  39  W1      29.97F
#PENDLETON DNTN N/A         68  36  31  NW1     29.98S
#PDT AQUATIC CTRN/A         67  38  34  NW6     29.99S
#PDT SUNRIDGE   N/A         66  36  33  NW2     29.98S
#PENDLETON 7NW  N/A         66  43  43  CALM    32.46S
#PILOT ROCK 1S  N/A         70  30  22  S6      29.98S
#PILOT ROCK     N/A         68  37  32  N3      30.00S
#TUTUILLA       N/A         68  36  31  CALM    29.96F
#UMAPINE 2E     N/A         70  40  34  W2      29.95S
#WESTON SCHOOL  N/A         64  29  27  NE5     29.81F

$$

ORZ508-012310-
SOUTHERN FOOTHILLS OF THE BLUES

CITY            SKY/WX      TMP DP  RH  WIND    PRES   REMARKS
LEXINGTON       MOCLDY      68  30  24  SW14    30.00S
#AJAX           N/A         63  28  26  S15G25  27.74S
#CONDON SCHOOL  N/A         59  34  39  SW10    29.95F
#CONDON 5W      N/A         55  29  37  SW14G25 29.98R
#FOSSIL SCHOOL  N/A         60  34  37  W8      29.95F
#HEPPNER EOC    N/A         65  31  28  SW8     29.88S
#HEPPNER 4NE    N/A         62  29  28  W8      29.95S
#LEXINGTON 2SE  N/A         69  31  24  W10G28  29.93S
#RUGGS 5NE      N/A         63  28  26  SW7     30.17S
#RUGGS 2SW      N/A         61  30  31  W8      29.97S

$$

ORZ502-503-012310-
BLUE MOUNTAINS

CITY            SKY/WX      TMP DP  RH  WIND    PRES   REMARKS
MEACHAM         PTCLDY      60  21  22  VRB3    30.02R
#BATTLE MTN DOT N/A         55  25  31  S6      N/A
#CUTSFORTH PARK N/A         57  32  38  SE1     29.78S
#GREENHORN 9SW  N/A         64  26  23  W3      26.21F
#HARDMAN 10S    N/A         53  29  39  S8      30.10R
#HEPPNER 15SE   N/A         56  30  37  N2      25.54S
#LADD CREEK ODOTN/A         62  38  41  NE6     N/A
#LONG CREEK HS  N/A         58  33  39  W10     30.02F
#N POWDER DOT   N/A         67  31  26  W6      N/A
#PIKES PEAK     N/A         55  32  41  W9      27.99S
#TOLLGATE       N/A         51  32  48  SE7     29.89S
#TROY SCHOOL    N/A         69  35  28  N3      29.73S
#UKIAH          N/A         60  32  35  SW3     29.88S
#WESTON 4E      N/A         59  34  39  SW7     29.93S
$$

ORZ505-012310-
JOHN DAY BASIN

CITY            SKY/WX      TMP DP  RH  WIND    PRES   REMARKS
JOHN DAY        PTCLDY      62  28  27  W10     30.02F
#DAYVILLE SCHOOLN/A         64  26  23  SW5     29.97F
#MITCHELL       N/A         62  35  36  CALM    30.16F
#MITCHELL 8NW   N/A         58  28  32  W2      30.15F
#MONUMENT HS    N/A         65  25  22  W9      29.94F
#MT. VERNON 5SE N/A         58  27  30  W6      29.98F
#SPRAY SCHOOL   N/A         66  N/A N/A CALM    N/A
$$

ORZ506-012310-
OCHOCO AND JOHN DAY HIGHLANDS

CITY            SKY/WX      TMP DP  RH  WIND    PRES   REMARKS
#BUCK CREEK DOT N/A         59  29  32  SW9     N/A
#HORSE RIDGE DO N/A         56  25  30  SW9     N/A
#PAULINA SCHOOL N/A         58  26  29  SE6     N/A
#PINE MTN OBS   N/A         43  28  55  S12     N/A    WCI 37
#PRAIRIE CITY   N/A         65  31  28  NW6     30.17
#SENECA         N/A         56  N/A N/A N7      N/A
#SENECA 9NW     N/A         55  26  32  NW1     29.93F
$$

ORZ049-012310-
GRANDE RONDE VALLEY

CITY            SKY/WX      TMP DP  RH  WIND    PRES   REMARKS
LA GRANDE       PTCLDY      64  28  25  NE6     29.98S
#COVE SCHOOL    N/A         64  35  34  W3      30.00F
#ELGIN 3N       N/A         65  21  18  SW13    29.95F
#ELGIN 1E       N/A         69  31  24  CALM    N/A
#IMBLER SCHOOL  N/A         63  28  26  CALM    29.94S
#ISLAND CITY 4N N/A         54  51  90  CALM    30.00R
#LADD CYN DOT   N/A         64  40  41  E1      N/A
#UNION 1S       N/A         67  32  27  NW3     29.89F
$$

ORZ050-012310-
WALLOWA COUNTY

CITY            SKY/WX      TMP DP  RH  WIND    PRES   REMARKS
JOSEPH AIRPORT  PTCLDY      61  18  19  S3      30.01R
#IMNAHA SCHOOL  N/A         70  28  21  S5      29.92R
#JOSEPH 3W      N/A         57  25  29  W5      29.86S
#LOSTINE        N/A         63  29  28  NE3     29.69S
#LOSTINE 3SE    N/A         64  22  20  CALM    N/A
#MT HOWARD 8000 N/A         43  21  41  SW5     30.10R
#PROMISE 1S     N/A         59  35  40  SE8     30.03R
#WALLOWA SCHOOL N/A         65  30  27  W2      29.94S



$$



USA.gov is the U.S. government's official web portal to all federal, state and local government web resources and services.